This demonstration page uses our WeatherBlox Daily Observations layout. Learn more.

39.08367, -84.50855

Hourly Observations for January 4, 2020

Temp ( °F °C ) Dew Point ( °F °C ) Humidity (%) Winds ( mph kmh ) Pressure ( in mb ) Visibility ( mi km ) Precip ( " mm )
12:12 am 00:12 Cloudy 48 8.9 47 8.3 96 96 WNW 3 6 29.81 1009 8 12.87472 0 0
12:53 am 00:53 Cloudy with Mist and Fog 47 8.3 47 8.3 100 100 Calm 29.79 1009 4 6.43736 0 0
1:06 am 01:06 Cloudy with Mist and Fog 47 8.3 47 8.3 100 100 Calm 29.8 1009 4 6.43736 0 0
1:53 am 01:53 Cloudy with Mist and Fog 48 8.9 46 7.8 93 93 NNW 7 11 29.78 1009 5 8.0467 0 0
2:10 am 02:10 Cloudy with Light Rain 47 8.3 46 7.8 97 97 NW 6 9 29.81 1010 3 4.82802 0.001 0.001
2:35 am 02:35 Cloudy 47 8.3 45 7.2 93 93 NW 5 7 29.82 1010 8 12.87472 0.001 0.001
2:53 am 02:53 Cloudy with Mist and Fog 47 8.3 45 7.2 93 93 N 7 11 29.82 1010 6 9.65604 0.001 0.001
3:29 am 03:29 Cloudy with Light Rain 46 7.8 44 6.7 93 93 NW 5 7 29.83 1010 8 12.87472 0.01 0.254
3:53 am 03:53 Cloudy with Light Rain 46 7.8 44 6.7 93 93 WNW 3 6 29.82 1010 9 14.48406 0.02 0.508
4:26 am 04:26 Cloudy with Light Rain 46 7.8 44 6.7 93 93 WNW 7 11 29.83 1010 7 11.26538 0.01 0.254
4:42 am 04:42 Cloudy with Light Rain 45 7.2 43 6.1 93 93 W 7 11 29.83 1010 6 9.65604 0.02 0.508
4:53 am 04:53 Cloudy with Light Rain 45 7.2 43 6.1 93 93 W 6 9 29.82 1010 7 11.26538 0.02 0.508
5:02 am 05:02 Cloudy with Light Rain 45 7.2 43 6.1 93 93 WNW 3 6 29.83 1010 7 11.26538 0.001 0.001
5:44 am 05:44 Cloudy with Mist and Fog 45 7.2 43 6.1 93 93 W 6 9 29.84 1011 2.5 4.02335 0.001 0.001
5:48 am 05:48 Cloudy with Mist and Fog 45 7 43 6 93 93 W 6 9 29.84 1011 3 4.82802 0.001 0.001
5:53 am 05:53 Cloudy with Mist and Fog 44 6.7 43 6.1 96 96 WNW 7 11 29.83 1010 3 4.82802 0.001 0.001
6:00 am 06:00 Cloudy with Mist and Fog 44 6.7 43 6.1 96 96 WNW 5 7 29.84 1011 2.5 4.02335 0 0
6:04 am 06:04 Cloudy with Light Rain 44 6.7 43 6.1 96 96 WNW 5 7 29.84 1011 2.5 4.02335 0.001 0.001
6:11 am 06:11 Cloudy with Light Rain 44 6.7 43 6.1 96 96 WNW 6 9 29.84 1011 2 3.21868 0.01 0.254
6:21 am 06:21 Cloudy with Light Rain 44 6.7 43 6.1 96 96 WNW 5 7 29.84 1011 3 4.82802 0.01 0.254
6:33 am 06:33 Cloudy with Mist and Fog 44 6.7 43 6.1 96 96 VRB 5 7 29.84 1011 3 4.82802 0.01 0.254
6:53 am 06:53 Cloudy with Light Rain 44 6.7 42 5.6 93 93 WNW 9 15 29.83 1010 3 4.82802 0.02 0.508
7:53 am 07:53 Cloudy with Light Rain 43 6.1 40 4.4 89 89 NNW 7 11 29.84 1011 9 14.48406 0.01 0.254
8:08 am 08:08 Cloudy 43 6.1 41 5 93 93 NNW 6 9 29.86 1011 7 11.26538 0.001 0.001
8:20 am 08:20 Cloudy with Light Rain 42 5.6 40 4.4 92 92 NNW 8 13 29.87 1011 3 4.82802 0.01 0.254
8:25 am 08:25 Cloudy with Rain 42 5.6 40 4.4 92 92 NW 6 9 29.88 1012 2.5 4.02335 0.01 0.254
8:36 am 08:36 Cloudy with Light Rain 42 5.6 39 3.9 89 89 NW 8 13 29.88 1012 4 6.43736 0.02 0.508
8:50 am 08:50 Cloudy with Light Rain 41 5 37 3 87 87 WNW 8 13 29.89 1012 7 11.26538 0.02 0.508
8:53 am 08:53 Cloudy with Light Rain 41 5 38 3.3 89 89 NNW 7 11 29.87 1012 9 14.48406 0.02 0.508
9:06 am 09:06 Cloudy with Light Rain 41 5 38 3.3 89 89 VRB 5 7 29.9 1012 9 14.48406 0.001 0.001
9:17 am 09:17 Cloudy with Light Rain 41 5 38 3.3 89 89 VRB 5 7 29.9 1012 9 14.48406 0.001 0.001
9:27 am 09:27 Cloudy with Light Rain 41 5 38 3.3 89 89 N 3 6 29.91 1013 5 8.0467 0.01 0.254
9:53 am 09:53 Cloudy with Light Rain 41 5 37 2.8 86 86 undefined N/A 29.9 1012 8 12.87472 0.02 0.508
10:00 am 10:00 Cloudy with Light Rain 41 5 38 3.3 89 89 undefined N/A 29.92 1013 6 9.65604 0.001 0.001
10:09 am 10:09 Cloudy with Light Rain 40 4.4 37 2.8 89 89 NW 8 13 29.92 1013 9 14.48406 0.001 0.001
10:53 am 10:53 Cloudy 41 5 36 2.2 82 82 NW 7 11 29.92 1013 10 16.0934 0.001 0.001
11:53 am 11:53 Cloudy with Light Rain 40 4.4 35 1.7 83 83 NW 8 13 29.91 1013 8 12.87472 0.001 0.001
12:53 pm 12:53 Cloudy with Light Rain 38 3.3 35 1.7 89 89 W 14 22 29.91 1013 8 12.87472 0.001 0.001
1:48 pm 13:48 Cloudy with Light Snow 36 2 34 1 93 93 WNW 10 17 29.94 1014 2.5 4.02335 0.02 0.508
1:53 pm 13:53 Cloudy with Light Rain 36 2.2 33 0.6 89 89 W 10 17 29.92 1013 2.5 4.02335 0.02 0.508
2:53 pm 14:53 Cloudy 38 3.3 34 1.1 86 86 W 13 20 29.93 1014 10 16.0934 0.001 0.001
3:53 pm 15:53 Cloudy with Light Rain 37 2.8 33 0.6 86 86 WNW 10 17 29.96 1015 10 16.0934 0.001 0.001
4:51 pm 16:51 Cloudy 37 3 30 -1 75 75 W 8 13 30.01 1016 10 16.0934 0.001 0.001
4:53 pm 16:53 Cloudy 37 2.8 31 -0.6 79 79 WNW 10 17 30 1016 10 16.0934 0.001 0.001
5:53 pm 17:53 Cloudy 37 2.8 31 -0.6 79 79 WNW 10 17 30.04 1017 10 16.0934 0.001 0.001
6:53 pm 18:53 Cloudy 37 2.8 30 -1.1 76 76 W 7 11 30.07 1018 10 16.0934 0 0
7:02 pm 19:02 Cloudy 37 2.8 30 -1.1 76 76 WNW 10 17 30.09 1019 10 16.0934 0 0
7:53 pm 19:53 Cloudy 37 2.8 30 -1.1 76 76 W 10 17 30.1 1019 10 16.0934 0 0
8:53 pm 20:53 Cloudy 36 2.2 30 -1.1 79 79 WNW 9 15 30.13 1020 10 16.0934 0 0
9:53 pm 21:53 Cloudy 35 1.7 29 -1.7 78 78 W 10 17 30.15 1021 10 16.0934 0.01 0.254
10:53 pm 22:53 Cloudy 35 1.7 27 -2.8 72 72 W 15 24 30.17 1022 10 16.0934 0 0
11:00 pm 23:00 Cloudy 35 1.7 26 -3.3 70 70 W 14 22 30.19 1023 10 16.0934 0 0
11:45 pm 23:45 Cloudy 35 1.7 25 -3.9 67 67 NW 9 15 30.2 1023 10 16.0934 0 0
11:53 pm 23:53 Cloudy 35 1.7 25 -3.9 67 67 NW 10 17 30.19 1022 10 16.0934 0 0

Powered by AerisWeather